Flag for Australia Weather past 2 weeks in Hobart, Tasmania, Australia

Now
54 °F

Scattered clouds.


Feels Like: 48 °F
Forecast: 35 / 50 °F
Wind: 20 mph from Northwest

Location: Hobart Airport

Current Time: Sep 4, 2015 at 10:35:22 AM

Latest Report: Sep 4, 2015 at 10:00 AM


Visibility: N/A

Pressure: 30.04 "Hg

Humidity: 47%

Dew point: 34 °F

Location of HobartLocation

Historic Weather in Hobart — Graph

°F

Hobart temperature yesterday

Maximum temperature yesterday: 52 °F (at 11:00 AM)
Minimum temperature yesterday: 39 °F (at 10:30 PM)
Average temperature yesterday: 47 °F

Past Weeks' High & Low Weather Summary

 TemperatureHumidityPressure
High64 °F (Aug 21, 1:00 PM)100% (Aug 31, 3:30 AM)30.45 "Hg (Aug 31, 3:30 AM)
Low34 °F (Sep 4, 12:30 AM)38% (Aug 24, 2:00 PM)29.65 "Hg (Aug 22, 3:30 AM)
Average47 °F74%30.12 "Hg
* Reported Aug 20 9:00 AM — Sep 4 9:00 AM, Hobart, Weather by CustomWeather, © 2015

Note: Actual official high and low records may vary slightly from our data, if they occured in-between our weather recording intervals... More about our weather records

Advertising

Hobart weather history for previous 24 hours

 ConditionsComfort  
Time TempWeatherWind HumidityBarometerVisibility
9:00 AM
Fri, Sep 4
50 °FScattered clouds.18 mph54%30.04 "HgN/A
8:54 AM50 °FPartly sunny.20 mph50%30.04 "HgN/A
8:00 AM46 °FPartly sunny.9 mph57%30.07 "HgN/A
7:00 AM41 °FPartly sunny.10 mph66%30.07 "HgN/A
6:30 AM39 °FPassing clouds.8 mph70%30.07 "HgN/A
6:00 AM41 °FPassing clouds.9 mph66%30.07 "HgN/A
5:30 AM41 °FClear.9 mph66%30.07 "HgN/A
5:00 AM41 °FClear.10 mph61%30.07 "Hg10 mi
4:30 AM41 °FClear.6 mph61%30.09 "Hg10 mi
4:00 AM39 °FClear.6 mph70%30.09 "Hg10 mi
3:30 AM37 °FClear.8 mph75%30.09 "Hg10 mi
3:00 AM41 °FClear.8 mph66%30.09 "Hg10 mi
2:30 AM39 °FClear.7 mph75%30.09 "HgN/A
2:00 AM37 °FClear.7 mph81%30.12 "Hg10 mi
1:00 AM37 °FChilly.No wind87%30.12 "HgN/A
12:30 AM34 °FChilly.5 mph100%N/AN/A
12:00 AM37 °FChilly.7 mph87%N/AN/A
11:30 PM
Thu, Sep 3
39 °FChilly.9 mph81%N/AN/A
11:00 PM39 °FClear.8 mph75%30.12 "Hg10 mi
10:30 PM39 °FClear.8 mph81%30.12 "Hg10 mi
10:00 PM41 °FClear.10 mph81%30.12 "Hg10 mi
9:30 PM41 °FClear.9 mph76%30.12 "Hg10 mi
9:00 PM41 °FClear.1 mph70%30.12 "Hg10 mi
8:30 PM43 °FPassing clouds.7 mph61%30.12 "HgN/A
8:00 PM45 °FPassing clouds.9 mph61%30.12 "HgN/A
7:30 PM46 °FPassing clouds.13 mph53%30.09 "HgN/A
7:00 PM46 °FPassing clouds.10 mph53%30.09 "HgN/A
6:30 PM46 °FPassing clouds.15 mph57%30.09 "HgN/A
6:00 PM46 °FPassing clouds.14 mph53%30.07 "HgN/A
5:30 PM46 °FPassing clouds.16 mph57%30.07 "HgN/A
5:00 PM48 °FPassing clouds.15 mph50%30.04 "HgN/A
4:30 PM48 °FPassing clouds.18 mph50%30.04 "HgN/A
4:00 PM50 °FPassing clouds.17 mph43%30.04 "HgN/A
3:30 PM50 °FPassing clouds.17 mph47%30.01 "HgN/A
3:00 PM50 °FPassing clouds.17 mph47%30.01 "HgN/A
2:30 PM50 °FScattered clouds.14 mph47%30.01 "HgN/A
2:00 PM52 °FScattered clouds.15 mph41%30.01 "HgN/A
1:30 PM50 °FScattered clouds.15 mph50%30.01 "HgN/A
1:00 PM50 °FScattered clouds.15 mph62%30.01 "HgN/A
12:30 PM52 °FPartly sunny.17 mph54%30.01 "HgN/A
12:00 PM50 °FPartly sunny.15 mph54%30.01 "HgN/A
11:30 AM52 °FScattered showers. Scattered clouds.16 mph50%29.98 "HgN/A
11:00 AM52 °FScattered showers. Scattered clouds.16 mph47%29.98 "HgN/A
10:30 AM50 °FBroken clouds.17 mph50%29.98 "HgN/A
10:00 AM50 °FScattered clouds.16 mph54%29.98 "HgN/A
Weather by CustomWeather, © 2015

See weather overviewHow to use our weather pages